[[{"header":{"parameterUnit":"m.s-1","parameterCategory":1,"la1":30.2991,"la2":30.254,"lo1":-89.0895,"lo2":-89.0444,"dy":0.0017,"dx":0.0017,"nx":28,"ny":28,"refTime":"2024-06-05T21:00:00:Z","depth":0,"parameterNumber":2,"parameterNumberName":"U-component_of_WINDS"},"data":[0,0,0,0,0,0,0,0,0,0,0,0,0,0,0,0,0,0,0,0,0,0,0,0,0,0,0,0,0,0,0,0,0,0,0,0,0,0,0,0,0,0,0,0,0,0,0,0,0,0,0,0,0,0,0,0,0,0,-1.884,-1.8839,0,-1.8758,-1.8757,-1.8756,-1.8693,-1.8692,-1.8692,-1.8691,-1.8606,-1.8604,-1.8602,0,0,0,0,0,0,0,0,0,0,0,0,0,-1.8945,-1.8944,-1.884,-1.8839,-1.8838,-1.8758,-1.8757,-1.8756,-1.8693,-1.8692,-1.8691,-1.8691,-1.8606,-1.8604,-1.8602,0,0,0,0,0,0,0,0,0,0,0,0,0,-1.8885,-1.8943,-1.8841,-1.8797,-1.8793,-1.8758,-1.8757,-1.8755,-1.8693,-1.8692,-1.8691,-1.869,-1.8607,-1.8604,-1.8602,-1.8603,0,0,-1.8594,-1.8593,0,0,0,0,0,0,0,0,-1.8889,-1.8881,-1.8805,-1.88,-1.8795,-1.8735,-1.8762,-1.8704,-1.8693,-1.8731,-1.8691,-1.869,-1.8649,-1.8643,-1.863,-1.8599,-1.8596,-1.8594,-1.8592,-1.8591,-1.859,0,0,0,0,0,0,0,-1.8893,-1.8884,-1.8808,-1.8804,-1.8798,-1.8783,-1.8773,-1.8751,-1.8696,-1.8727,-1.8723,-1.8714,-1.8646,-1.8632,-1.8627,-1.8594,-1.8594,-1.8591,-1.859,-1.8589,-1.8565,-1.8566,0,0,0,0,0,0,-1.8904,-1.8888,-1.881,-1.8805,-1.8841,-1.8782,-1.8771,-1.8755,-1.8696,-1.8686,-1.8715,-1.8711,-1.8637,-1.863,-1.8624,-1.8624,-1.8591,-1.8589,-1.8587,-1.8564,-1.8566,-1.8567,0,0,0,0,0,0,-1.8906,-1.8897,-1.8814,-1.8845,-1.8834,-1.8781,-1.8763,-1.8754,-1.8739,-1.8686,-1.8676,-1.871,-1.8636,-1.8627,-1.861,-1.862,-1.8587,-1.8585,-1.8563,-1.8565,-1.8566,-1.8623,0,0,0,0,0,0,-1.8909,-1.8899,-1.8898,-1.8846,-1.8832,-1.8801,-1.8764,-1.8753,-1.8735,-1.873,-1.8679,-1.867,-1.8635,-1.8614,-1.8607,-1.8616,-1.8583,-1.8562,-1.8564,-1.8566,-1.862,-1.8626,-1.8632,0,0,0,0,0,-1.8913,-1.8916,-1.8898,-1.8889,-1.883,-1.8801,-1.8793,-1.8753,-1.8736,-1.8736,-1.8702,-1.8672,-1.862,-1.8613,-1.8605,-1.8613,-1.8561,-1.8563,-1.8565,-1.8617,-1.8625,-1.8631,0,0,0,0,0,0,-1.8969,-1.8908,-1.8888,-1.8874,-1.8843,-1.8791,-1.8788,-1.8761,-1.8734,-1.8731,-1.8681,-1.867,-1.8659,-1.8634,-1.8626,-1.8613,-1.8587,-1.8588,-1.8629,-1.8636,-1.8642,-1.8648,-1.8581,0,0,0,0,0,-1.898,-1.8962,-1.8909,-1.8902,-1.8888,-1.8841,-1.8827,-1.8799,-1.8765,-1.8752,-1.8716,-1.8685,-1.8662,-1.8648,-1.8623,-1.8617,-1.8606,-1.8618,-1.8624,-1.8629,-1.863,-1.8628,-1.8634,-1.8573,-1.8573,-1.8573,0,0,-1.9002,-1.8967,-1.8957,-1.8913,-1.8886,-1.8868,-1.8831,-1.8813,-1.88,-1.8749,-1.873,-1.8704,-1.8666,-1.8655,-1.8648,-1.8634,-1.8645,-1.8632,-1.8636,-1.8634,-1.8631,-1.8637,-1.8642,-1.8575,-1.8575,-1.8574,0,0,-1.9033,-1.9004,-1.8996,-1.8971,-1.8931,-1.89,-1.8899,-1.8851,-1.8832,-1.8813,-1.8776,-1.876,-1.872,-1.8696,-1.8678,-1.8705,-1.8677,-1.8698,-1.8728,-1.8727,-1.8732,-1.8736,-1.8747,-1.8752,-1.87,-1.87,-1.87,0,-1.9065,-1.9037,-1.8995,-1.8981,-1.8963,-1.8918,-1.8911,-1.8888,-1.8842,-1.8832,-1.8817,-1.8769,-1.874,-1.8724,-1.8731,-1.8717,-1.8715,-1.8703,-1.8734,-1.8738,-1.8741,-1.8751,-1.8756,-1.8703,-1.8703,-1.8702,-1.8702,0,-1.9079,-1.9061,-1.906,-1.9019,-1.9001,-1.899,-1.8948,-1.8935,-1.891,-1.8881,-1.8865,-1.8829,-1.8798,-1.8792,-1.8766,-1.8774,-1.8766,-1.8744,-1.8716,-1.875,-1.876,-1.8763,-1.8707,-1.8706,-1.8705,-1.8704,0,0,-1.914,-1.9079,-1.908,-1.9062,-1.9017,-1.9002,-1.8991,-1.8962,-1.8953,-1.8924,-1.8914,-1.8884,-1.8864,-1.8844,-1.8816,-1.8814,-1.8841,-1.8792,-1.879,-1.8804,-1.885,-1.8868,-1.8873,-1.8823,-1.8823,-1.8823,-1.8854,0,-1.9165,-1.9142,-1.9106,-1.9095,-1.9079,-1.9038,-1.9028,-1.9001,-1.8975,-1.8958,-1.893,-1.891,-1.8884,-1.8872,-1.8869,-1.8838,-1.885,-1.8836,-1.8814,-1.8814,-1.8825,-1.8877,-1.8895,-1.8925,-1.8857,-1.8857,-1.8858,0,-1.919,-1.9166,-1.9154,-1.9114,-1.9105,-1.9097,-1.907,-1.9054,-1.9023,-1.9004,-1.8985,-1.8955,-1.8942,-1.8919,-1.8902,-1.8893,-1.8883,-1.8867,-1.8867,-1.8864,-1.8838,-1.8877,-1.8934,-1.8939,-1.8862,-1.8862,-1.8862,0,-1.9238,-1.9202,-1.9191,-1.9177,-1.9129,-1.9125,-1.9105,-1.9073,-1.9059,-1.9035,-1.9026,-1.9001,-1.8988,-1.897,-1.8934,-1.892,-1.8923,-1.8895,-1.8908,-1.891,-1.891,-1.8911,-1.8968,-1.8903,-1.8903,-1.8903,-1.8903,0,-1.9269,-1.9264,-1.9213,-1.9206,-1.92,-1.9159,-1.9155,-1.9131,-1.9104,-1.9093,-1.9055,-1.9046,-1.9,-1.8986,-1.8958,-1.895,-1.8944,-1.893,-1.8922,-1.8933,-1.8935,-1.8926,-1.8923,-1.8904,-1.8903,-1.8903,-1.8903,0,-1.9321,-1.9286,-1.9272,-1.9229,-1.9219,-1.9216,-1.918,-1.9173,-1.9147,-1.9133,-1.9128,-1.9087,-1.9068,-1.9032,-1.9003,-1.8985,-1.8984,-1.897,-1.8995,-1.899,-1.9006,-1.9006,-1.9059,-1.9065,-1.8996,-1.8997,-1.8997,0,-1.9344,-1.9339,-1.9297,-1.9288,-1.927,-1.9254,-1.9241,-1.9202,-1.919,-1.9157,-1.9154,-1.9133,-1.9115,-1.9088,-1.9056,-1.9035,-1.9021,-1.9041,-1.9017,-1.903,-1.9023,-1.9024,-1.9025,-1.9047,-1.9048,-1.9048,-1.9049,0,-1.9388,-1.9372,-1.9354,-1.9331,-1.9317,-1.9297,-1.9275,-1.9269,-1.9226,-1.9214,-1.9196,-1.9182,-1.9154,-1.9135,-1.911,-1.909,-1.9063,-1.9057,-1.906,-1.9071,-1.9086,-1.908,-1.901,-1.9056,-1.9055,-1.9055,-1.9054,-1.9054,-1.9426,-1.9422,-1.9393,-1.9375,-1.9355,-1.9336,-1.9329,-1.9303,-1.9287,-1.9262,-1.9241,-1.9225,-1.9198,-1.9161,-1.9144,-1.9132,-1.9118,-1.9121,-1.9122,-1.9123,-1.9129,-1.9088,-1.9127,-1.9127,-1.9127,-1.9126,-1.9126,0,-1.947,-1.945,-1.9435,-1.9406,-1.9394,-1.9371,-1.9346,-1.9337,-1.9324,-1.9301,-1.9284,-1.9266,-1.9248,-1.9216,-1.9196,-1.9193,-1.918,-1.9189,-1.9189,-1.9185,-1.9141,-1.9142,-1.92,-1.92,-1.92,-1.92,-1.92,-1.92,-1.9491,-1.9483,-1.9465,-1.9447,-1.9427,-1.9413,-1.9401,-1.9385,-1.9367,-1.9347,-1.9333,-1.9313,-1.9287,-1.9265,-1.9249,-1.924,-1.9235,-1.9248,-1.9236,-1.9195,-1.9188,-1.9181,-1.9182,-1.9247,-1.9247,-1.9281,-1.9281,-1.9281]},{"header":{"parameterUnit":"m.s-1","parameterCategory":1,"la1":30.2991,"la2":30.254,"lo1":-89.0895,"lo2":-89.0444,"dy":0.0017,"dx":0.0017,"nx":28,"ny":28,"refTime":"2024-06-05T21:00:00:Z","depth":0,"parameterNumber":3,"parameterNumberName":"V-component_of_WINDS"},"data":[0,0,0,0,0,0,0,0,0,0,0,0,0,0,0,0,0,0,0,0,0,0,0,0,0,0,0,0,0,0,0,0,0,0,0,0,0,0,0,0,0,0,0,0,0,0,0,0,0,0,0,0,0,0,0,0,0,0,1.2965,1.2966,0,1.3,1.3,1.3001,1.3033,1.3034,1.3034,1.3034,1.3067,1.3067,1.3068,0,0,0,0,0,0,0,0,0,0,0,0,0,1.2925,1.2925,1.2965,1.2966,1.2966,1.3,1.3,1.3001,1.3033,1.3034,1.3034,1.3035,1.3067,1.3067,1.3068,0,0,0,0,0,0,0,0,0,0,0,0,0,1.2949,1.2925,1.2965,1.2987,1.2989,1.3,1.3,1.3001,1.3033,1.3034,1.3034,1.3035,1.3067,1.3067,1.3068,1.306,0,0,1.307,1.307,0,0,0,0,0,0,0,0,1.2947,1.295,1.2983,1.2985,1.2988,1.3013,1.2998,1.302,1.3033,1.3016,1.3034,1.3035,1.3048,1.3051,1.3056,1.3061,1.3063,1.307,1.3071,1.3071,1.3071,0,0,0,0,0,0,0,1.2946,1.2949,1.2979,1.2983,1.2986,1.2993,1.2997,1.3002,1.3028,1.3018,1.302,1.3024,1.305,1.3055,1.3056,1.3063,1.307,1.3071,1.3071,1.3072,1.3062,1.3061,0,0,0,0,0,0,1.2941,1.2947,1.2978,1.298,1.2969,1.2993,1.2998,1.3004,1.3028,1.3033,1.3023,1.3025,1.3053,1.3056,1.3058,1.3048,1.3071,1.3072,1.3072,1.3062,1.3062,1.3061,0,0,0,0,0,0,1.294,1.2944,1.2976,1.2964,1.2969,1.2994,1.3,1.3004,1.301,1.3033,1.3037,1.3024,1.3054,1.3057,1.3059,1.305,1.3072,1.3073,1.3063,1.3062,1.3061,1.303,0,0,0,0,0,0,1.2939,1.2943,1.2941,1.2964,1.297,1.2978,1.3,1.3005,1.3011,1.3014,1.3034,1.3038,1.3055,1.3057,1.3059,1.3051,1.3073,1.3064,1.3063,1.3062,1.3032,1.3028,1.3024,0,0,0,0,0,1.2937,1.2931,1.2941,1.2944,1.2968,1.2977,1.298,1.3,1.301,1.3008,1.3022,1.3038,1.3051,1.3057,1.306,1.3052,1.3065,1.3063,1.3062,1.3033,1.3029,1.3025,0,0,0,0,0,0,1.2906,1.2934,1.2946,1.2947,1.2959,1.2983,1.298,1.2995,1.3004,1.3006,1.3029,1.3034,1.3032,1.3043,1.3049,1.3044,1.306,1.3059,1.3037,1.3033,1.3029,1.3026,1.3074,0,0,0,0,0,1.2899,1.2905,1.293,1.2928,1.2934,1.2956,1.2961,1.2975,1.2988,1.2994,1.3008,1.302,1.3027,1.3031,1.3038,1.3034,1.3037,1.3029,1.3025,1.3022,1.3021,1.3017,1.3013,1.3056,1.3056,1.3056,0,0,1.2885,1.2901,1.2904,1.2922,1.2933,1.2938,1.296,1.2964,1.2968,1.2994,1.2997,1.3008,1.3022,1.302,1.302,1.3029,1.301,1.302,1.3018,1.3018,1.3015,1.3011,1.3007,1.3055,1.3055,1.3055,0,0,1.2861,1.2875,1.2874,1.2885,1.2902,1.2917,1.2916,1.2938,1.2946,1.2949,1.2968,1.2972,1.2984,1.2993,1.2999,1.2977,1.2991,1.2979,1.2959,1.2955,1.2952,1.2949,1.294,1.2936,1.2977,1.2977,1.2977,0,1.2841,1.285,1.2872,1.2875,1.2881,1.2906,1.2904,1.2914,1.2932,1.2935,1.2945,1.2958,1.297,1.297,1.2964,1.2969,1.2968,1.2976,1.2951,1.2948,1.2946,1.2937,1.2933,1.2976,1.2976,1.2976,1.2976,0,1.2823,1.2829,1.2826,1.2843,1.285,1.285,1.2871,1.2875,1.2888,1.2901,1.2902,1.2917,1.2927,1.2929,1.2942,1.2929,1.2934,1.2947,1.2963,1.294,1.2931,1.2928,1.2973,1.2974,1.2974,1.2975,0,0,1.2781,1.281,1.2808,1.2815,1.2835,1.2839,1.284,1.2851,1.2852,1.2864,1.2864,1.2873,1.2884,1.2891,1.2905,1.2902,1.2881,1.2915,1.2916,1.2907,1.2867,1.2856,1.2851,1.2891,1.2891,1.289,1.2865,0,1.2759,1.2763,1.2782,1.278,1.2784,1.2807,1.2807,1.2819,1.2831,1.2835,1.2848,1.2853,1.2869,1.2873,1.2871,1.2884,1.2873,1.2887,1.289,1.289,1.2884,1.2848,1.2836,1.2812,1.2862,1.2862,1.2861,0,1.2735,1.2745,1.2742,1.2761,1.2763,1.2764,1.2773,1.2778,1.2791,1.28,1.2807,1.2822,1.2823,1.2839,1.2839,1.2848,1.285,1.2857,1.2856,1.2856,1.2873,1.2845,1.2804,1.28,1.2857,1.2857,1.2857,0,1.2702,1.2714,1.2714,1.272,1.2742,1.2741,1.275,1.2764,1.2768,1.2777,1.2779,1.2788,1.2792,1.2798,1.2814,1.2825,1.2812,1.283,1.2818,1.2817,1.2813,1.2813,1.2771,1.2817,1.2817,1.2817,1.2817,0,1.2675,1.2672,1.2699,1.2699,1.2696,1.2718,1.2714,1.2725,1.2737,1.2738,1.2758,1.2759,1.2782,1.2785,1.2798,1.2795,1.2797,1.2803,1.2806,1.28,1.2799,1.2801,1.2802,1.2816,1.2817,1.2817,1.2817,0,1.2637,1.2656,1.2656,1.2677,1.2682,1.2678,1.2695,1.2695,1.2708,1.2709,1.2711,1.2731,1.2735,1.2753,1.2761,1.277,1.2762,1.2769,1.2757,1.2759,1.2745,1.2746,1.2702,1.2696,1.2748,1.2747,1.2747,0,1.2618,1.2616,1.2636,1.2638,1.2646,1.265,1.2655,1.2676,1.2679,1.2693,1.269,1.2696,1.2702,1.2707,1.2722,1.2728,1.2734,1.2719,1.2735,1.2729,1.2732,1.2731,1.273,1.2714,1.2714,1.2713,1.2713,0,1.2581,1.259,1.2596,1.2604,1.2609,1.2617,1.2626,1.2626,1.2649,1.2652,1.2656,1.266,1.2669,1.2673,1.2682,1.269,1.2704,1.2708,1.2705,1.2698,1.269,1.2692,1.2745,1.2708,1.2709,1.2709,1.2709,1.2709,1.2551,1.255,1.2563,1.2568,1.2577,1.2584,1.2585,1.2597,1.2602,1.261,1.2622,1.2624,1.2636,1.2648,1.2655,1.2656,1.2665,1.2661,1.266,1.2658,1.2654,1.2691,1.2658,1.2658,1.2659,1.2659,1.2659,0,1.2514,1.2523,1.2528,1.2539,1.2543,1.2557,1.2567,1.2569,1.2571,1.258,1.2585,1.2589,1.2594,1.2609,1.2614,1.2612,1.2619,1.2613,1.2612,1.2613,1.2648,1.2649,1.2607,1.2607,1.2607,1.2607,1.2607,1.2607,1.2495,1.2493,1.2503,1.2504,1.2514,1.2517,1.2521,1.2527,1.2534,1.2538,1.2542,1.2552,1.2563,1.2569,1.2573,1.2578,1.2578,1.2569,1.2575,1.2606,1.2611,1.2616,1.2617,1.2569,1.2569,1.254,1.254,1.254]}]]